Temp
63 63 62 62 61 61 61 61 61 62 63 63 63 64 63 63 63 83 87 94 95 76 75 100 102 102 104 99 103 83 62 56 66 80 84 93 86 89 100 93 97 98 91 94 94
62 62 62 62 61 61 60 61 61 61 61 63 63 63 63 63 83 89 94 80 78 77 97 97 98 102 97 98 99 79 66 61 69 66 76 92 89 90 93 91 81 80 91 95 94
62 62 62 61 61 60 60 61 61 61 62 63 63 63 63 66 85 93 82 79 78 81 99 101 103 100 95 99 94 75 63 69 69 71 79 92 92 90 80 84 77 66 78 83 92
61 62 61 61 61 60 60 61 60 61 62 62 62 63 63 82 77 102 80 79 78 98 100 99 100 95 91 91 97 86 84 75 81 81 91 92 96 87 84 91 97 91 82 89 92
61 61 61 61 60 60 60 61 60 60 61 61 62 63 75 83 89 95 79 81 98 98 96 97 96 95 90 93 95 90 91 85 94 95 96 97 93 93 93 96 98 98 98 94 93
60 60 60 60 60 60 60 60 59 59 60 61 62 62 80 80 106 101 99 99 102 100 99 101 99 99 94 93 91 93 94 94 96 95 95 91 93 93 80 90 95 95 96 96 94
60 60 60 60 60 60 59 59 59 59 60 61 63 77 84 89 109 107 106 103 105 104 99 105 104 97 97 91 97 95 88 91 92 91 92 95 87 82 82 88 93 92 92 93 93
60 59 59 59 59 59 59 59 59 60 61 62 64 81 84 106 110 107 108 105 107 108 104 106 105 99 95 98 94 89 78 70 84 83 85 89 78 87 90 92 92 92 92 90 89
59 59 59 59 59 59 59 58 60 62 62 65 75 82 86 92 100 107 108 101 104 105 105 106 102 94 95 84 78 82 73 73 76 81 78 82 80 87 92 92 91 92 90 89 88
59 58 58 58 59 58 57 58 63 61 69 84 89 85 93 94 102 106 108 106 100 99 97 96 93 87 85 80 65 65 71 76 73 74 74 72 82 84 88 89 90 91 90 89 87
59 58 58 58 58 57 63 80 81 80 86 88 91 91 97 105 107 101 105 101 100 95 84 91 84 74 76 77 77 76 75 75 81 83 77 75 84 88 90 87 88 88 88 88 88
58 58 58 57 57 57 67 86 96 99 86 94 96 97 102 104 93 98 105 92 90 83 89 85 78 82 86 83 81 82 77 79 84 89 86 83 82 88 90 89 83 71 86 88 84
57 57 57 57 56 63 86 94 106 104 86 92 97 96 97 100 93 94 100 95 89 84 85 81 82 87 84 84 83 83 80 80 79 86 88 85 80 80 82 88 77 70 76 90 84
57 57 57 55 62 94 91 101 105 105 77 85 90 95 98 99 90 103 103 95 90 84 86 84 92 87 84 84 85 77 88 86 83 79 71 85 67 77 76 74 65 64 63 69 84
57 57 57 55 74 91 100 107 106 98 60 89 91 106 100 92 95 95 105 97 86 87 88 83 86 86 83 85 88 81 88 84 83 79 77 77 70 72 77 71 69 66 64 74 82
56 57 56 71 75 91 104 105 97 74 62 84 92 89 89 92 93 97 96 100 97 88 89 87 95 91 88 91 90 90 85 83 83 77 57 68 66 66 68 72 74 78 74 72 67
56 56 56 77 92 104 104 95 73 66 89 83 85 89 87 86 88 91 87 85 80 74 75 83 85 91 92 85 89 87 78 66 64 66 61 73 66 60 70 61 75 84 77 75 81
55 54 65 85 100 101 95 81 64 79 82 92 90 89 83 88 86 88 85 81 87 85 79 74 72 83 83 82 81 81 77 67 55 57 62 76 63 70 77 75 77 83 79 72 68
53 89 89 95 95 98 85 70 72 80 89 86 89 83 82 87 87 86 84 83 85 84 72 73 74 88 88 89 88 79 73 81 69 70 61 69 71 67 65 65 65 67 73 72 73
66 82 92 101 100 91 79 67 81 91 90 90 80 85 79 83 83 83 77 80 77 82 88 80 69 83 86 89 89 84 82 67 70 51 48 61 62 55 59 61 61 59 63 73 79
70 82 95 103 96 84 72 77 85 93 91 85 82 81 78 75 76 72 74 75 80 86 88 83 76 75 81 78 77 78 76 75 69 66 50 49 52 62 65 64 61 60 61 64 77
78 77 97 101 80 82 77 83 77 89 92 88 87 85 76 78 77 72 68 81 88 87 78 81 74 66 72 83 87 84 78 74 64 61 63 59 54 69 64 64 60 62 71 63 68
71 82 99 95 74 78 84 85 89 86 86 86 84 87 88 83 77 82 84 87 88 84 75 76 71 62 67 77 83 76 78 78 75 69 59 52 59 67 64 66 63 62 65 60 59
73 76 83 89 87 80 79 81 82 90 87 89 87 89 85 82 85 80 82 83 85 80 67 72 70 66 61 67 75 71 75 77 70 60 60 58 57 64 63 67 62 60 61 61 60
77 75 64 69 81 80 82 81 78 79 88 89 84 85 83 77 80 80 79 65 62 66 78 75 65 70 73 76 76 74 74 71 67 66 57 60 58 63 66 64 63 65 63 63 60
71 70 76 73 78 77 73 77 77 81 83 82 80 84 85 79 81 75 66 60 59 74 77 77 65 69 67 75 76 72 71 70 69 66 67 60 58 67 68 69 63 66 67 63 60
75 76 73 67 76 77 78 74 72 69 86 90 87 84 82 85 79 75 69 69 80 77 75 73 69 65 60 72 72 66 69 69 68 70 65 60 65 67 64 63 64 64 66 63 64
MSLP
1016.91 1016.63 1016.34 1016.07 1015.87 1015.69 1015.46 1015.23 1015.00 1014.73 1014.49 1014.31 1014.13 1014.04 1013.84 1013.43 1012.66 1012.14 1010.14 1008.26 1007.81 1007.97 1008.26 1007.19 1006.05 1005.25 1004.54 1004.23 1003.61 1007.12 1010.93 1011.93 1010.40 1006.07 1004.24 1003.16 1003.29 1002.88 1002.28 1002.72 1002.87 1003.38 1004.60 1005.33 1006.83
1017.14 1016.66 1016.33 1016.08 1015.90 1015.67 1015.45 1015.17 1014.96 1014.75 1014.60 1014.32 1014.19 1014.07 1013.85 1013.55 1012.05 1009.84 1007.84 1008.08 1007.94 1008.13 1007.70 1006.37 1004.79 1003.94 1003.35 1002.94 1002.97 1005.65 1009.76 1010.45 1010.86 1008.69 1006.48 1003.19 1003.36 1003.01 1002.39 1002.81 1004.52 1006.14 1005.24 1006.06 1006.39
1017.18 1016.80 1016.42 1016.06 1015.80 1015.63 1015.37 1015.08 1014.82 1014.59 1014.40 1014.19 1014.06 1013.93 1013.80 1013.39 1011.06 1007.75 1007.46 1007.60 1007.78 1008.03 1007.57 1006.20 1004.70 1003.69 1002.53 1002.06 1002.85 1005.43 1009.26 1009.83 1009.88 1007.74 1006.54 1002.95 1002.91 1003.22 1003.52 1004.23 1004.50 1007.36 1005.54 1005.55 1006.45
1017.37 1016.90 1016.46 1016.08 1015.79 1015.52 1015.31 1015.03 1014.75 1014.45 1014.26 1014.08 1013.91 1013.86 1013.77 1012.62 1008.93 1005.97 1006.95 1007.37 1007.69 1007.61 1007.26 1005.65 1004.07 1003.04 1002.34 1001.65 1001.81 1003.49 1005.59 1006.68 1005.37 1005.98 1004.29 1002.54 1002.22 1002.96 1003.24 1003.34 1003.40 1004.22 1004.94 1005.42 1005.81
1017.52 1016.92 1016.43 1016.01 1015.65 1015.40 1015.22 1014.94 1014.71 1014.43 1014.24 1014.06 1014.00 1013.90 1013.43 1010.97 1007.40 1006.86 1007.47 1007.46 1007.44 1007.51 1006.71 1004.93 1003.56 1002.62 1002.10 1001.81 1001.63 1002.44 1002.87 1004.18 1002.94 1002.85 1002.45 1002.23 1001.88 1001.87 1002.62 1003.22 1003.53 1003.68 1003.78 1004.53 1005.40
1017.50 1016.92 1016.39 1015.90 1015.51 1015.21 1014.97 1014.74 1014.53 1014.27 1014.08 1014.01 1013.96 1013.97 1012.55 1008.57 1005.50 1006.37 1006.74 1006.90 1006.57 1006.56 1005.66 1004.39 1003.41 1003.15 1002.77 1001.96 1001.97 1002.41 1002.37 1002.46 1002.13 1002.24 1002.13 1002.19 1001.87 1002.00 1004.27 1004.49 1003.69 1003.98 1003.87 1004.21 1005.05
1017.41 1016.91 1016.40 1015.90 1015.48 1015.07 1014.67 1014.38 1014.19 1014.01 1013.85 1013.77 1013.80 1013.27 1010.59 1006.77 1004.75 1005.42 1005.78 1005.91 1005.92 1005.41 1004.85 1003.86 1003.80 1003.64 1003.00 1002.25 1002.17 1002.26 1002.31 1002.36 1002.55 1002.94 1002.05 1002.18 1002.20 1003.41 1004.44 1003.88 1003.65 1004.08 1004.49 1004.80 1005.38
1017.44 1016.88 1016.30 1015.75 1015.34 1014.89 1014.47 1014.10 1013.82 1013.63 1013.60 1013.64 1013.72 1012.50 1008.48 1005.38 1004.84 1004.67 1004.94 1005.07 1005.22 1004.99 1004.74 1004.29 1004.13 1003.88 1003.47 1002.88 1002.48 1002.42 1003.98 1004.15 1004.41 1004.68 1003.45 1003.28 1002.44 1002.91 1003.39 1003.27 1003.04 1003.39 1004.45 1005.20 1005.92
1017.47 1016.86 1016.31 1015.69 1015.12 1014.65 1014.26 1013.89 1013.49 1013.25 1013.30 1013.32 1013.06 1011.11 1006.79 1005.34 1004.93 1004.45 1004.38 1004.45 1004.57 1004.72 1004.62 1004.47 1004.34 1003.98 1003.49 1003.48 1003.84 1003.55 1003.99 1004.58 1005.27 1005.77 1004.84 1003.66 1002.53 1002.58 1003.24 1002.93 1002.91 1003.08 1004.00 1005.05 1006.00
1017.45 1016.69 1016.13 1015.58 1015.00 1014.49 1014.04 1013.83 1013.32 1013.22 1012.97 1012.06 1010.64 1009.21 1005.56 1004.24 1003.99 1003.92 1004.26 1004.20 1004.29 1004.44 1004.38 1004.32 1004.08 1003.79 1003.91 1004.70 1005.39 1006.17 1004.93 1003.99 1004.70 1005.35 1005.39 1004.74 1002.57 1001.79 1002.39 1002.79 1002.79 1003.09 1003.65 1004.71 1005.73
1017.38 1016.57 1015.89 1015.32 1014.82 1014.37 1013.54 1013.06 1012.76 1011.57 1010.24 1007.67 1006.46 1005.04 1003.66 1003.06 1003.35 1003.94 1004.02 1004.29 1004.15 1004.22 1004.06 1003.87 1003.61 1004.29 1005.59 1005.21 1005.39 1004.50 1004.25 1003.45 1002.20 1003.15 1003.85 1003.02 1001.62 1001.17 1001.54 1002.39 1002.74 1003.80 1003.71 1004.80 1005.23
1017.19 1016.43 1015.65 1015.01 1014.51 1014.09 1013.68 1010.40 1007.34 1006.48 1006.37 1006.04 1005.16 1004.27 1003.41 1002.94 1003.28 1003.35 1003.65 1004.02 1003.94 1003.68 1003.32 1003.34 1003.36 1003.93 1004.26 1004.24 1003.85 1003.21 1002.77 1001.70 1001.51 1001.33 1001.48 1001.32 1000.82 1000.47 1001.03 1001.90 1002.55 1003.64 1004.79 1004.88 1006.05
1017.06 1016.24 1015.39 1014.69 1014.06 1013.52 1010.94 1008.32 1006.65 1006.04 1005.52 1003.71 1003.81 1003.21 1003.17 1003.41 1002.82 1002.62 1003.33 1003.49 1003.27 1003.07 1002.70 1002.41 1002.67 1003.77 1003.46 1002.53 1002.06 1001.72 1001.23 1000.99 1001.10 1000.55 1000.16 999.94 999.99 1000.62 1002.14 1002.64 1004.68 1005.83 1007.24 1004.76 1006.14
1016.90 1016.09 1015.31 1014.45 1013.88 1009.84 1008.54 1007.38 1006.58 1006.03 1004.82 1002.17 1002.52 1002.58 1002.76 1002.70 1002.65 1002.14 1002.73 1003.13 1002.76 1002.42 1002.26 1002.03 1001.07 1001.82 1001.89 1001.50 1001.39 1000.80 1000.55 1000.53 1000.45 1000.37 1000.03 1000.19 1000.12 1001.62 1003.20 1004.06 1005.89 1006.64 1008.90 1007.33 1005.96
1016.55 1015.85 1015.10 1015.38 1012.76 1009.09 1006.62 1006.34 1006.25 1006.17 1003.68 1000.99 1001.45 1001.46 1001.99 1002.26 1001.37 1001.80 1001.94 1002.49 1002.33 1001.90 1001.86 1001.16 1000.83 1000.69 1000.65 1000.46 1000.61 1000.86 1000.94 1000.79 1000.61 1000.57 1000.75 1000.68 1001.16 1002.22 1003.40 1004.72 1005.75 1007.00 1007.31 1006.65 1004.65
1015.89 1015.48 1014.91 1012.87 1012.33 1008.57 1006.99 1006.59 1006.77 1005.70 1002.34 1000.69 1000.96 1001.12 1001.64 1001.89 1001.45 1000.92 1001.64 1002.07 1002.12 1002.06 1001.83 1001.40 1000.91 1000.63 1000.47 1000.30 1000.28 1000.75 1000.63 1000.63 1000.63 1000.85 1002.58 1002.07 1002.51 1003.17 1004.17 1004.64 1004.95 1005.60 1006.18 1006.02 1007.60
1015.19 1014.38 1014.84 1012.45 1008.51 1006.95 1006.78 1006.66 1005.92 1003.71 1000.82 1000.04 1000.35 1000.93 1001.24 1001.15 1001.38 1001.06 1001.50 1001.96 1002.27 1002.23 1001.63 1001.16 1000.63 1000.15 1000.30 1000.22 1000.24 1000.33 1000.69 1000.66 1000.63 1000.63 1001.44 1001.65 1003.07 1003.12 1004.77 1005.93 1005.57 1003.88 1005.63 1006.36 1005.27
1014.50 1012.74 1011.06 1009.97 1007.92 1007.57 1007.24 1006.54 1004.75 1002.03 1000.44 999.22 999.61 1000.26 1000.75 1000.69 1001.17 1001.07 1001.26 1001.50 1001.83 1001.85 1001.33 1000.69 1000.10 1000.60 1001.42 1001.92 1000.63 1000.74 1001.35 1001.56 1001.21 1001.93 1002.57 1002.35 1003.28 1003.32 1005.46 1005.36 1004.83 1004.78 1005.48 1005.95 1006.66
1013.82 1010.25 1009.11 1007.78 1008.23 1007.57 1007.06 1005.48 1003.39 1001.37 1000.04 999.93 999.21 999.66 1000.06 1000.21 1000.36 1000.81 1001.18 1001.49 1001.88 1002.05 1002.90 1001.71 1000.63 1000.72 1001.11 1000.80 1000.89 1000.86 1001.61 1002.07 1002.15 1002.68 1003.63 1003.28 1004.10 1005.66 1007.53 1007.92 1007.18 1006.71 1007.95 1006.28 1006.37
1014.12 1010.28 1007.14 1006.54 1007.16 1007.49 1006.61 1004.63 1002.71 1001.16 1000.56 999.92 999.35 999.47 999.50 999.63 1000.19 1000.99 1001.71 1002.80 1002.49 1003.38 1002.62 1002.51 1002.07 1001.87 1001.38 1001.14 1000.82 1000.59 1001.66 1002.36 1002.93 1004.65 1005.23 1005.07 1006.08 1007.94 1008.00 1009.89 1010.01 1009.14 1009.22 1007.70 1006.47
1013.48 1008.91 1006.36 1006.15 1007.20 1006.75 1005.39 1003.81 1002.45 1001.37 1001.13 1000.86 1000.32 999.93 1000.36 1001.32 1001.41 1002.11 1003.39 1002.81 1004.12 1002.70 1003.01 1003.11 1003.05 1002.68 1002.21 1001.84 1001.16 1001.02 1001.15 1002.35 1004.03 1005.15 1006.29 1006.61 1007.72 1007.98 1009.18 1010.12 1010.80 1011.06 1011.43 1008.32 1006.81
1012.33 1008.00 1006.09 1005.93 1006.34 1005.55 1004.53 1003.47 1002.30 1001.29 1000.99 1001.34 1001.07 1000.72 1001.00 1000.80 1001.86 1002.01 1002.84 1002.69 1003.19 1003.45 1003.45 1004.18 1004.28 1003.89 1003.25 1002.30 1001.45 1001.18 1001.64 1002.72 1003.70 1004.75 1005.90 1006.83 1008.14 1009.52 1010.05 1010.55 1010.19 1011.08 1011.35 1011.09 1008.16
1013.27 1008.41 1005.42 1005.69 1005.23 1004.31 1003.52 1002.88 1001.84 1001.74 1001.52 1001.28 1000.93 1000.77 1000.49 1000.48 1000.83 1001.14 1001.76 1002.79 1003.44 1003.67 1004.77 1005.68 1005.21 1004.64 1003.32 1002.14 1001.38 1001.93 1002.52 1003.06 1003.68 1005.00 1006.34 1007.76 1008.57 1009.89 1011.02 1010.65 1010.00 1010.93 1011.64 1012.72 1012.82
1013.81 1008.39 1006.28 1005.45 1005.15 1004.60 1003.72 1002.62 1002.24 1002.22 1002.03 1001.42 1000.83 1000.58 1000.48 1000.52 1000.82 1001.55 1002.35 1003.46 1004.57 1005.03 1005.97 1006.44 1006.25 1005.66 1004.59 1003.60 1003.02 1002.46 1002.85 1003.28 1004.56 1005.64 1006.65 1007.89 1008.93 1009.79 1010.13 1010.06 1011.31 1012.03 1012.54 1013.21 1013.04
1013.12 1009.78 1010.09 1007.87 1005.50 1005.07 1004.27 1003.93 1003.07 1002.24 1001.74 1001.76 1001.12 1000.79 1000.39 1000.59 1000.93 1001.63 1003.19 1005.97 1007.27 1006.88 1006.52 1006.52 1006.44 1005.77 1004.77 1003.89 1003.37 1003.12 1003.05 1004.24 1005.32 1006.48 1007.50 1008.23 1009.13 1009.90 1010.40 1010.92 1011.46 1011.93 1012.99 1013.61 1013.50
1013.97 1012.78 1011.11 1009.51 1007.65 1006.44 1005.22 1005.09 1004.55 1003.53 1002.27 1001.69 1001.71 1001.39 1000.91 1000.73 1001.11 1002.34 1004.50 1007.32 1008.87 1007.04 1006.33 1006.19 1006.32 1005.90 1004.98 1004.08 1003.14 1003.02 1003.89 1004.83 1005.76 1006.71 1007.31 1008.56 1009.47 1010.66 1011.12 1011.40 1011.95 1012.02 1012.38 1012.95 1013.45
1015.55 1014.48 1012.66 1009.54 1007.76 1006.73 1006.14 1006.50 1006.06 1006.02 1003.15 1002.07 1001.91 1002.20 1001.97 1001.05 1002.47 1004.79 1004.36 1005.10 1005.31 1005.51 1005.79 1005.79 1005.94 1005.88 1005.05 1004.27 1003.28 1003.23 1003.94 1005.02 1006.07 1006.86 1008.11 1008.47 1009.37 1010.60 1011.62 1012.12 1012.43 1012.60 1012.55 1012.59 1012.71
Wind_Speed
17 15 14 12 11 10 10 8 8 8 9 10 10 11 11 12 17 8 13 10 9 6 2 13 16 15 16 17 15 17 6 2 19 1 11 15 8 9 5 6 7 10 14 20 20
18 17 15 13 11 11 10 9 9 8 9 9 10 10 10 11 10 17 16 7 8 8 10 17 14 8 13 17 5 9 4 4 11 19 26 5 14 15 6 9 9 22 18 18 18
18 17 16 14 12 11 10 10 9 9 9 10 10 10 10 13 9 18 13 11 9 8 13 20 14 15 18 9 6 7 9 14 21 33 30 11 9 4 16 12 19 22 12 14 12
18 17 17 15 12 11 10 10 10 10 10 10 10 10 9 7 8 11 11 11 7 8 13 21 14 16 14 12 2 4 25 24 9 29 17 7 7 12 21 2 3 21 23 21 14
18 18 18 16 14 11 10 9 10 10 10 10 9 8 7 9 11 11 7 9 8 8 13 19 15 13 8 13 4 10 7 28 12 5 11 8 10 3 7 6 3 5 5 14 11
19 19 18 17 15 13 10 10 10 11 11 10 8 6 7 12 10 13 16 11 13 14 16 16 13 12 13 16 8 5 9 8 6 9 4 4 13 4 24 26 4 3 4 10 11
21 19 18 17 16 14 12 10 10 11 11 10 6 6 10 18 2 18 16 14 13 15 15 10 9 13 15 15 14 10 13 8 9 21 3 5 14 10 13 14 1 3 2 8 8
21 20 20 18 17 15 13 12 12 13 11 9 6 8 9 18 6 10 14 14 12 15 12 12 11 14 13 15 15 17 14 13 12 25 21 15 10 10 14 11 10 14 9 8 8
21 20 19 19 18 17 14 13 14 12 10 5 7 8 16 6 11 12 12 13 12 10 11 9 11 13 16 12 11 19 13 2 5 5 11 13 21 10 5 11 9 8 12 11 11
22 22 20 18 18 17 15 9 8 3 7 11 13 9 15 13 13 13 10 12 11 12 12 13 13 13 5 12 8 17 23 10 8 5 14 22 18 15 17 12 9 9 11 12 16
22 22 21 19 17 15 10 5 6 7 13 14 18 14 13 9 12 9 11 11 11 12 13 17 15 6 13 17 17 21 20 27 18 20 17 20 16 9 11 15 9 5 10 10 14
24 23 22 20 19 13 7 8 11 12 7 23 20 21 8 6 10 13 12 12 14 15 17 16 12 10 17 14 24 21 25 18 18 17 11 13 19 12 6 8 7 15 14 12 19
24 23 23 21 20 5 11 16 9 11 11 15 20 15 9 9 11 14 14 15 15 17 15 17 16 23 20 17 12 15 15 12 16 19 21 18 16 10 18 3 16 24 35 13 18
24 23 22 27 4 8 13 17 13 8 8 13 20 14 16 10 12 14 15 16 17 20 14 14 18 22 20 12 13 15 16 18 16 17 16 18 15 1 12 10 12 19 11 27 18
25 24 22 9 13 9 7 3 7 3 7 18 18 8 16 14 8 15 16 14 19 18 15 12 12 12 13 12 11 16 19 21 22 19 20 22 8 10 13 4 9 19 21 24 11
28 24 22 3 8 15 12 7 5 7 8 12 11 11 16 16 18 12 12 12 14 13 16 19 18 14 15 15 13 12 16 20 19 15 8 9 5 5 7 8 10 14 18 15 24
31 29 11 9 4 5 7 6 7 10 13 12 17 15 15 16 15 9 13 14 11 11 16 18 16 20 8 13 10 14 14 10 14 11 10 7 7 9 7 18 24 2 22 24 19
35 32 8 9 8 9 6 8 10 13 19 5 11 15 16 15 14 16 12 14 20 19 14 16 11 8 8 17 14 11 12 12 19 12 19 12 6 6 14 17 20 21 20 20 13
34 5 6 7 12 8 8 12 12 18 12 5 10 13 17 16 14 17 17 15 10 5 4 14 11 16 9 8 14 12 13 18 17 14 14 13 14 21 19 21 19 23 12 23 25
10 8 12 9 6 7 8 16 18 23 8 15 10 11 13 18 16 12 4 16 5 28 7 8 13 14 18 15 14 18 8 14 6 9 11 10 17 6 12 10 14 23 28 19 19
5 7 8 10 6 7 11 16 18 23 4 8 15 18 12 10 8 12 11 5 21 3 6 8 8 13 16 15 19 16 13 7 7 3 4 9 6 5 8 2 8 12 20 25 19
7 6 8 7 7 9 12 19 18 15 2 11 16 17 8 27 22 16 33 7 4 2 3 9 5 11 19 20 21 15 9 12 9 12 6 10 5 9 9 5 6 8 14 12 16
8 10 7 9 10 11 16 20 16 9 11 17 13 16 18 11 8 6 10 13 6 5 6 7 4 11 11 13 16 10 10 13 12 5 12 9 5 6 3 7 11 16 12 12 9
7 4 4 7 11 14 14 15 17 14 16 20 17 15 17 15 11 10 9 9 6 13 9 5 4 9 11 15 15 16 15 13 9 7 11 9 8 11 7 8 6 9 13 13 13
6 4 3 10 4 13 13 11 15 17 18 18 15 16 17 12 14 15 3 17 28 2 6 3 6 11 14 16 16 16 10 9 9 6 7 8 7 10 12 13 12 11 12 13 13
7 7 8 15 15 14 11 11 17 20 18 17 19 20 21 15 17 1 18 8 13 12 5 5 7 10 15 18 20 10 2 3 4 3 10 6 4 9 10 9 11 9 11 13 11
10 13 9 10 11 11 12 12 12 13 24 21 15 17 20 14 18 15 13 13 9 6 8 8 5 8 13 18 16 11 1 2 3 5 8 10 6 6 6 6 4 8 7 11 13
Wind_Direction
3 0 358 357 352 345 337 335 326 320 315 313 315 313 318 323 301 238 248 252 208 161 151 264 237 248 245 252 256 139 80 180 270 327 210 114 105 287 244 111 212 126 151 132 147
4 1 357 354 349 341 334 327 318 312 309 309 308 311 323 329 278 260 235 175 170 158 250 253 263 252 255 243 248 86 63 158 335 316 304 179 154 222 220 184 10 7 56 126 151
359 359 356 351 346 338 331 320 313 309 307 308 309 318 325 310 270 245 165 166 185 190 261 277 290 267 265 241 241 126 175 157 223 232 258 210 132 43 353 276 140 189 171 193 165
353 353 353 349 343 336 326 318 309 305 304 306 312 319 326 261 228 170 144 169 163 239 260 271 263 260 272 285 79 156 157 188 223 224 246 293 125 156 192 79 101 139 166 186 164
348 349 348 346 341 334 322 309 300 294 293 297 304 317 278 221 256 132 159 156 176 217 250 267 282 306 316 282 6 338 0 191 203 196 249 352 280 23 86 68 50 62 144 147 157
347 347 345 342 338 330 319 306 294 288 283 284 296 306 245 248 133 149 184 172 223 211 250 259 296 340 289 302 294 258 323 317 286 309 309 254 297 114 23 342 76 332 114 140 147
344 344 341 339 334 327 315 302 288 281 278 279 287 269 259 252 332 164 188 197 218 244 253 281 325 297 314 303 335 307 282 224 338 341 313 3 281 107 142 194 230 172 141 108 137
341 340 339 336 333 326 316 303 292 282 272 263 268 250 253 213 289 187 194 207 217 243 258 306 309 299 279 280 283 263 58 19 10 355 322 331 283 139 172 210 227 165 151 132 128
337 337 336 334 332 326 316 306 289 275 244 225 232 226 246 131 214 214 208 220 209 231 250 271 282 283 291 353 10 343 337 241 342 338 349 298 280 118 183 219 227 178 160 157 152
336 334 335 332 329 323 312 285 318 258 218 212 257 234 249 216 196 203 204 241 205 232 239 248 258 264 306 350 326 298 284 261 189 222 221 282 269 162 190 224 243 219 168 170 159
335 332 332 331 330 324 308 195 201 199 231 219 184 227 145 192 145 202 196 209 231 228 240 244 247 45 320 224 244 225 250 260 211 218 204 211 267 300 213 215 215 295 164 173 166
332 331 329 329 326 319 267 248 342 336 255 224 262 218 289 139 202 206 191 216 220 241 229 238 275 325 282 191 235 236 244 296 326 294 263 266 262 269 284 230 152 166 222 175 128
330 329 327 328 324 263 230 249 322 319 287 219 220 222 217 235 246 206 187 218 228 224 246 261 210 241 256 267 274 276 282 266 283 305 293 277 282 283 348 305 45 17 334 172 145
329 327 327 326 279 260 213 233 257 315 274 211 195 215 219 199 234 243 182 227 231 250 269 275 276 192 227 289 276 285 318 321 293 301 299 317 298 320 45 41 63 81 341 323 162
328 326 322 325 313 272 17 293 330 275 277 140 183 175 211 206 232 205 193 207 254 276 287 273 308 302 288 280 327 311 308 304 302 289 286 285 285 325 331 250 180 168 168 221 254
322 326 326 167 218 259 302 281 246 235 273 160 145 206 196 205 245 187 203 212 245 266 276 288 293 286 271 271 269 291 295 295 284 296 333 283 237 290 319 312 288 205 198 191 243
321 316 300 301 277 358 267 243 230 244 206 156 166 194 205 202 220 183 191 209 228 236 244 245 257 264 316 327 315 309 316 293 294 294 305 40 155 235 111 209 250 123 184 208 155
322 312 217 232 291 249 255 226 248 240 253 124 163 189 203 201 208 234 221 214 210 234 270 288 294 57 24 297 287 317 303 296 296 307 274 279 259 25 38 27 7 0 71 91 87
315 283 231 227 224 246 236 224 223 258 322 219 171 192 200 223 224 202 228 233 313 141 293 306 310 332 255 257 311 301 291 312 292 318 333 320 342 77 34 19 2 338 336 152 183
315 283 257 141 166 216 234 245 243 247 337 316 246 226 242 208 197 239 359 3 80 294 355 319 307 308 308 312 289 280 51 270 359 323 300 278 304 45 42 7 14 338 330 278 135
264 260 118 131 172 217 235 238 244 262 287 283 281 286 327 326 339 347 332 181 263 2 12 307 320 311 334 309 308 315 306 331 213 259 262 301 291 248 291 126 7 358 313 298 143
299 277 143 180 209 226 239 243 269 290 143 252 272 281 164 260 186 182 216 180 125 79 354 51 326 301 298 292 277 258 323 349 307 301 256 326 326 44 44 40 90 265 1 29 12
295 291 188 205 238 234 227 246 258 273 254 259 241 265 276 287 305 304 312 118 120 82 63 9 317 307 304 307 47 348 300 284 311 317 291 273 317 44 100 348 13 23 56 67 45
274 287 313 205 256 288 287 299 240 239 254 258 255 242 258 263 259 265 262 111 92 92 103 108 261 269 284 297 295 299 315 318 10 322 318 302 324 349 353 339 358 31 71 94 69
244 29 120 293 298 316 253 284 302 280 231 234 257 253 256 243 250 258 19 41 14 179 166 141 277 295 291 298 304 287 309 359 325 339 293 348 9 355 32 53 86 104 108 105 79
349 343 330 285 274 289 299 273 273 270 275 224 239 239 246 234 244 141 102 99 206 221 203 186 276 291 295 287 267 308 32 340 312 247 321 145 167 68 49 63 74 96 121 117 107
355 336 295 298 293 272 267 338 304 328 269 240 222 243 261 268 78 102 136 180 246 268 270 256 278 301 289 296 312 284 61 294 304 351 339 309 61 101 87 70 70 136 137 153 164